Wind_Speed
24 22 21 20 18 18 17 16 15 14 15 15 15 15 14 14 13 13 13 13 13 13 13 14 14 15 16 16 17 18 19 20 20 21 21 22 22 23 23 24 24 25 25 26
24 24 22 21 19 18 18 18 16 15 15 17 18 17 16 15 15 15 15 15 15 15 15 16 17 17 18 19 19 20 21 22 22 23 23 24 25 25 26 26 27 27 28 28
22 22 21 19 18 18 19 19 18 16 16 17 18 19 18 17 16 16 17 16 16 16 17 17 18 19 20 21 22 22 23 24 25 25 26 26 27 28 28 29 29 29 30 30
22 22 22 18 18 19 18 18 19 18 18 18 18 18 19 19 18 18 18 18 18 18 18 19 20 21 22 23 24 25 26 26 27 28 28 29 29 29 30 30 30 30 30 31
24 23 21 20 19 18 18 17 18 18 18 18 18 18 19 20 19 20 20 20 20 20 21 22 22 23 25 25 26 27 28 29 30 30 30 30 31 31 32 31 31 31 32 32
24 23 21 21 20 19 19 18 18 19 19 20 19 20 21 21 21 21 22 22 22 23 24 25 26 27 27 27 28 30 31 32 32 32 32 32 33 33 33 32 32 33 33 33
23 21 21 22 20 19 19 20 19 20 21 21 21 21 22 22 22 22 23 24 24 25 26 27 28 28 28 28 30 31 32 33 33 33 33 34 34 34 34 34 34 35 35 35
22 22 22 22 21 22 21 21 21 22 22 22 22 23 23 24 24 24 24 25 26 27 28 28 29 29 30 30 31 32 33 33 33 34 35 35 34 35 35 36 37 37 37 37
22 22 23 22 23 23 23 22 22 22 23 23 24 24 25 25 26 26 26 26 27 28 29 30 30 30 32 32 33 33 34 34 34 35 35 36 36 37 38 39 39 39 40 41
21 23 24 24 23 23 23 22 22 22 24 24 24 25 25 26 28 28 28 28 29 29 29 30 31 31 32 33 34 35 35 35 35 36 37 37 38 38 39 40 41 42 43 44
21 22 22 23 23 23 23 23 23 23 23 24 25 26 26 27 28 29 30 31 31 31 32 32 33 33 34 35 36 36 36 36 36 37 38 39 39 40 41 42 43 44 45 46
21 21 21 20 21 22 22 21 23 23 24 24 25 26 27 28 29 30 31 31 32 33 33 33 34 34 35 36 36 37 37 38 38 39 40 41 41 42 43 44 45 46 47 48
20 21 21 21 21 22 22 22 23 23 24 25 25 26 27 28 29 31 32 32 32 33 34 35 35 36 36 36 37 37 38 39 40 41 42 43 43 44 45 46 48 49 50 51
21 21 22 22 22 23 23 23 23 24 24 25 25 25 26 26 27 28 30 31 31 32 32 33 34 35 36 37 38 39 39 41 42 43 44 45 46 47 48 49 50 51 53 54
21 21 21 21 22 22 23 23 24 24 24 24 25 25 26 27 28 28 29 30 31 31 32 33 34 35 36 38 39 40 41 42 43 45 46 47 48 49 50 52 53 54 55 56
20 20 20 20 21 22 23 23 23 23 24 24 25 25 26 27 28 29 30 31 32 33 33 34 35 37 38 39 41 42 43 44 45 46 48 49 50 51 53 54 55 56 57 58
19 19 20 20 21 21 22 23 24 25 25 26 26 27 27 28 29 30 32 32 33 33 34 35 36 37 39 40 41 42 43 45 46 48 49 51 52 53 54 56 57 57 58 59
19 20 20 20 21 22 23 24 25 25 27 27 28 29 29 30 31 32 33 33 35 36 37 38 38 39 41 42 43 44 45 47 48 49 51 52 53 55 56 57 58 58 58 58
19 20 21 22 23 24 25 26 27 27 28 28 29 30 31 32 33 34 35 36 37 38 39 40 40 41 42 44 45 46 47 48 50 51 53 54 55 56 56 56 56 56 57 56
21 22 23 23 24 24 24 25 26 28 29 31 32 33 34 34 35 36 36 37 38 39 40 41 42 43 44 45 47 48 49 50 51 53 53 54 55 55 55 55 55 54 54 53
22 23 23 24 24 25 26 28 29 30 32 33 33 33 34 35 36 37 37 38 39 40 41 43 43 44 46 47 48 49 50 51 51 52 53 53 53 53 52 51 51 50 49 48
23 24 25 25 26 27 29 31 32 33 33 34 35 35 36 37 38 39 40 41 41 42 43 44 45 46 47 48 48 49 49 50 50 50 50 50 49 48 47 46 45 44 43 42
24 25 26 27 28 29 31 32 33 34 35 35 36 37 38 39 39 41 42 42 42 43 44 45 46 46 47 47 47 47 47 47 46 45 44 44 43 42 41 41 40 40 40 39
27 28 28 30 31 32 33 34 36 36 37 38 38 39 40 41 41 42 43 43 44 44 45 45 45 45 45 45 44 44 43 43 41 41 40 39 39 38 38 38 38 37 36 35
29 30 30 31 33 34 35 36 37 38 39 39 40 41 42 42 43 43 43 44 44 44 44 44 44 43 42 42 41 40 40 39 38 38 37 37 36 36 35 35 34 32 32 31
30 32 33 34 35 36 37 37 38 39 40 40 40 41 41 42 42 42 42 42 41 41 41 41 40 39 38 38 38 38 37 36 35 35 35 34 33 32 31 30 29 29 28 27
32 33 34 34 35 36 36 37 37 38 38 39 39 39 39 39 39 39 39 39 38 38 37 37 37 36 36 36 36 35 34 33 33 33 32 30 29 28 27 26 26 25 24 23
Wind_Direction
243 247 253 256 258 261 258 258 256 258 258 256 254 257 257 256 253 251 254 254 251 249 246 244 244 246 246 246 246 247 249 251 253 257 260 262 265 267 270 274 277 279 282 285
247 248 248 251 256 259 257 257 255 255 254 249 250 252 254 254 252 250 252 253 252 252 253 250 248 249 250 250 251 252 254 256 258 261 263 265 267 269 272 275 278 281 283 285
246 244 245 249 252 257 256 253 254 254 252 249 252 252 252 252 251 251 251 253 253 254 256 256 254 254 256 257 257 258 260 262 264 265 266 267 269 272 274 277 279 282 283 285
240 242 247 249 252 253 251 250 252 253 253 252 252 251 251 251 250 249 250 253 254 257 260 261 260 260 260 262 263 264 265 266 267 268 269 270 272 274 276 278 280 283 285 287
233 239 245 248 249 250 250 250 249 250 249 249 250 250 249 249 248 248 249 252 255 258 261 262 262 263 263 263 265 266 267 268 268 269 270 272 273 275 276 278 281 283 285 287
235 237 242 245 246 248 249 250 249 249 250 250 250 249 247 246 246 248 252 254 258 259 260 261 261 263 265 266 266 267 268 268 269 270 271 272 274 276 277 279 281 284 285 287
236 241 243 243 243 245 247 248 247 249 250 250 248 246 247 247 248 249 253 255 258 260 260 261 263 264 265 267 268 268 268 270 269 269 272 274 276 276 278 280 283 285 286 288
236 239 242 244 245 244 245 247 247 248 250 249 248 246 247 248 249 250 253 257 260 261 261 263 264 263 264 267 269 271 272 273 273 272 273 275 278 279 280 283 285 287 288 288
235 241 246 246 245 245 247 249 250 250 249 249 250 249 248 249 250 251 253 256 260 262 265 265 265 266 267 267 269 271 271 272 273 274 275 276 278 280 282 284 285 286 288 289
241 242 247 247 248 249 250 252 251 251 249 248 248 249 249 250 252 253 256 259 261 264 265 266 266 268 270 273 273 273 272 272 274 275 277 279 280 282 283 285 286 287 288 289
241 245 250 248 249 250 251 251 249 251 251 249 250 251 253 254 256 256 258 261 263 264 267 269 270 270 272 274 273 272 273 275 276 278 279 280 280 281 283 285 286 287 289 289
244 246 249 248 250 252 252 252 250 251 252 252 255 257 258 259 259 259 260 261 264 268 270 272 272 272 273 273 274 275 276 277 278 279 280 281 282 283 284 285 286 287 288 289
247 248 250 252 252 253 252 252 252 254 255 257 258 259 260 261 263 263 262 264 266 267 270 271 271 272 274 274 275 276 277 278 279 280 281 281 282 283 285 286 287 288 289 289
253 252 251 251 254 256 257 258 258 258 259 261 261 262 264 264 265 266 266 267 270 271 272 273 273 275 275 277 277 278 279 280 281 282 283 284 285 286 287 288 289 290 290 290
254 254 254 254 255 258 259 259 261 262 264 267 268 267 268 269 270 271 271 272 273 274 275 275 276 277 278 280 281 282 283 284 284 285 286 287 287 288 289 289 289 290 290 290
254 256 258 259 260 261 260 259 261 263 264 266 267 269 270 271 272 272 273 274 275 276 277 278 279 280 282 282 282 283 284 285 286 286 287 288 288 289 289 289 290 290 290 290
255 257 259 260 261 262 264 263 263 264 267 268 268 270 272 273 274 275 276 276 276 278 279 281 282 284 284 285 285 285 286 287 288 288 289 289 289 290 290 290 290 290 290 291
258 259 259 260 261 263 266 267 268 269 271 272 273 273 274 275 276 278 278 278 280 282 283 284 285 285 286 286 286 286 287 287 288 289 289 290 290 290 291 291 291 291 291 291
265 266 266 267 266 266 268 268 270 273 274 275 277 277 277 278 278 279 280 281 283 284 285 286 286 287 287 287 287 287 288 288 289 290 291 291 292 292 292 292 292 292 292 292
269 270 271 270 269 269 270 271 272 273 274 276 277 278 280 281 281 281 283 283 284 286 287 287 288 288 289 289 289 289 290 291 291 292 292 292 292 292 292 293 293 293 293 293
270 271 271 271 271 271 272 273 273 274 276 277 279 280 281 282 283 283 284 285 286 287 288 288 289 289 290 290 291 292 292 293 293 293 294 294 294 294 293 294 294 294 294 294
269 270 270 272 273 274 276 277 278 279 281 281 281 282 283 284 284 285 286 288 288 288 289 290 291 291 292 293 293 294 294 295 295 295 295 296 295 295 295 295 295 295 295 295
274 275 274 275 277 278 280 281 282 283 284 285 286 286 285 285 286 287 288 289 290 290 291 292 292 293 293 294 294 295 295 296 296 297 297 297 297 296 296 296 296 296 296 295
276 277 278 279 281 283 284 286 287 287 287 287 287 287 287 287 288 289 289 289 290 291 291 292 293 294 294 294 294 295 295 296 297 297 298 298 298 299 299 299 299 299 298 297
277 278 280 282 284 285 286 286 287 288 288 288 288 288 288 289 290 290 290 290 291 291 291 292 293 293 293 293 293 294 295 296 296 297 298 298 299 299 299 300 300 300 300 299
282 283 285 286 287 288 288 288 288 289 289 289 289 290 290 291 291 291 291 291 291 291 291 292 292 293 293 293 294 294 295 296 297 297 299 300 300 301 301 301 302 302 301 301
284 286 287 288 289 289 290 291 291 291 291 291 291 291 292 292 291 291 291 292 292 292 292 292 292 293 294 294 295 295 295 295 296 298 299 300 301 302 303 304 305 306 305 303
Height
5831 5832 5833 5834 5835 5835 5835 5836 5838 5838 5838 5838 5837 5836 5837 5837 5838 5839 5840 5841 5842 5843 5844 5845 5846 5847 5848 5849 5850 5851 5851 5852 5852 5852 5852 5852 5852 5851 5850 5849 5848 5846 5845 5843
5824 5825 5826 5827 5829 5829 5830 5831 5832 5832 5833 5832 5831 5832 5832 5833 5834 5835 5836 5837 5838 5839 5840 5841 5842 5843 5844 5845 5845 5846 5846 5847 5847 5847 5847 5846 5846 5845 5844 5843 5841 5840 5838 5836
5818 5819 5820 5822 5823 5823 5824 5825 5826 5827 5828 5827 5827 5827 5828 5828 5829 5830 5832 5832 5833 5834 5835 5836 5837 5838 5839 5839 5840 5840 5841 5841 5841 5841 5841 5840 5839 5838 5837 5836 5834 5833 5831 5829
5811 5814 5815 5819 5817 5817 5818 5819 5820 5821 5821 5821 5822 5822 5823 5824 5825 5826 5827 5828 5828 5829 5830 5831 5832 5832 5833 5834 5834 5835 5835 5835 5835 5834 5834 5833 5832 5831 5830 5828 5826 5825 5823 5821
5805 5807 5809 5811 5811 5812 5812 5813 5814 5814 5815 5816 5816 5817 5818 5819 5820 5821 5822 5823 5823 5824 5825 5825 5826 5826 5827 5827 5828 5828 5828 5828 5827 5827 5826 5825 5824 5823 5821 5820 5818 5816 5814 5812
5798 5800 5803 5805 5805 5805 5808 5808 5808 5809 5809 5810 5811 5812 5813 5813 5814 5815 5816 5817 5818 5818 5819 5820 5820 5820 5820 5820 5820 5820 5820 5819 5819 5818 5817 5816 5815 5814 5812 5811 5809 5807 5805 5803
5791 5794 5796 5797 5799 5800 5803 5803 5802 5803 5803 5804 5805 5806 5807 5807 5808 5809 5810 5811 5811 5812 5812 5813 5813 5813 5813 5813 5813 5812 5812 5811 5810 5809 5808 5807 5805 5804 5803 5801 5800 5797 5795 5793
5785 5787 5791 5790 5792 5794 5794 5794 5795 5796 5797 5798 5798 5799 5800 5801 5802 5803 5804 5804 5805 5804 5804 5805 5805 5805 5805 5805 5804 5804 5803 5802 5801 5800 5799 5798 5796 5795 5793 5791 5789 5787 5785 5782
5779 5782 5782 5783 5784 5785 5787 5787 5788 5789 5790 5791 5792 5793 5794 5795 5795 5796 5797 5797 5797 5797 5798 5797 5797 5797 5797 5796 5796 5795 5794 5793 5792 5791 5790 5788 5787 5785 5783 5781 5778 5776 5773 5771
5771 5773 5774 5776 5777 5778 5779 5780 5781 5782 5783 5784 5785 5786 5786 5787 5788 5788 5789 5790 5790 5790 5790 5789 5789 5788 5788 5788 5787 5786 5785 5784 5782 5781 5780 5778 5776 5774 5772 5769 5767 5764 5761 5759
5765 5767 5768 5769 5770 5771 5772 5773 5774 5775 5776 5776 5777 5778 5779 5780 5780 5781 5781 5782 5781 5781 5781 5781 5780 5779 5779 5778 5776 5776 5775 5773 5772 5771 5769 5767 5765 5763 5761 5758 5755 5752 5749 5746
5759 5760 5762 5763 5764 5765 5766 5766 5767 5768 5768 5769 5770 5771 5771 5772 5772 5773 5773 5773 5773 5772 5772 5771 5771 5770 5769 5768 5767 5766 5764 5763 5761 5759 5757 5755 5753 5751 5748 5746 5743 5739 5736 5732
5753 5754 5755 5757 5757 5758 5759 5760 5760 5761 5761 5761 5762 5763 5763 5763 5764 5764 5764 5764 5763 5763 5763 5762 5761 5760 5759 5758 5757 5755 5753 5752 5750 5748 5745 5743 5741 5738 5735 5732 5728 5725 5721 5717
5747 5748 5750 5750 5751 5752 5752 5753 5753 5753 5754 5754 5754 5755 5755 5755 5755 5755 5755 5755 5754 5753 5753 5752 5751 5750 5749 5748 5746 5745 5742 5740 5738 5735 5733 5730 5727 5724 5721 5717 5714 5710 5706 5702
5741 5742 5743 5744 5745 5745 5745 5746 5746 5747 5747 5747 5747 5747 5747 5747 5747 5746 5746 5746 5745 5744 5743 5742 5741 5740 5738 5736 5735 5733 5731 5728 5726 5723 5720 5717 5713 5710 5706 5702 5698 5694 5690 5685
5735 5736 5736 5737 5738 5739 5739 5739 5740 5740 5740 5740 5739 5739 5739 5739 5738 5738 5737 5737 5736 5735 5734 5732 5731 5729 5728 5726 5723 5721 5718 5716 5713 5709 5706 5703 5699 5695 5691 5686 5682 5677 5673 5668
5729 5730 5730 5731 5732 5732 5732 5732 5732 5732 5732 5732 5732 5732 5731 5731 5730 5729 5728 5727 5726 5725 5723 5722 5720 5718 5716 5714 5711 5708 5705 5702 5699 5695 5692 5688 5683 5679 5674 5670 5665 5660 5655 5650
5724 5724 5724 5725 5725 5725 5725 5725 5725 5725 5725 5724 5724 5723 5723 5722 5721 5720 5719 5717 5716 5714 5713 5711 5709 5706 5704 5701 5698 5695 5692 5688 5684 5680 5676 5672 5667 5663 5658 5653 5648 5643 5637 5632
5718 5718 5718 5718 5718 5718 5718 5718 5718 5717 5717 5716 5715 5715 5714 5713 5711 5710 5709 5707 5705 5703 5701 5699 5696 5694 5691 5687 5684 5681 5677 5673 5669 5665 5660 5655 5651 5646 5641 5635 5630 5625 5620 5615
5711 5711 5711 5711 5711 5711 5711 5711 5710 5709 5709 5708 5707 5705 5704 5703 5701 5699 5697 5696 5694 5691 5689 5686 5683 5680 5677 5673 5670 5666 5662 5657 5653 5648 5644 5639 5634 5628 5623 5618 5613 5608 5603 5598
5704 5704 5704 5704 5704 5703 5703 5703 5702 5701 5700 5699 5697 5695 5694 5692 5690 5688 5686 5683 5681 5679 5676 5673 5669 5666 5662 5658 5654 5650 5646 5641 5637 5632 5627 5622 5617 5612 5607 5602 5597 5592 5587 5583
5698 5697 5697 5696 5696 5695 5694 5693 5692 5691 5690 5688 5687 5685 5683 5681 5678 5676 5673 5671 5668 5665 5662 5659 5655 5651 5648 5643 5639 5635 5630 5626 5621 5616 5611 5606 5601 5596 5592 5587 5582 5578 5573 5569
5690 5690 5689 5689 5687 5686 5685 5684 5683 5681 5679 5677 5675 5673 5671 5669 5666 5663 5661 5658 5654 5651 5648 5645 5641 5637 5633 5629 5625 5620 5616 5611 5607 5602 5597 5593 5588 5583 5578 5574 5570 5565 5561 5557
5683 5682 5681 5680 5679 5677 5676 5674 5672 5670 5668 5666 5664 5662 5659 5656 5653 5650 5647 5644 5641 5638 5634 5631 5627 5623 5619 5615 5611 5607 5602 5598 5594 5590 5585 5580 5576 5571 5567 5562 5558 5554 5550 5546
5674 5673 5672 5670 5669 5667 5666 5663 5661 5659 5657 5654 5651 5649 5646 5643 5640 5637 5633 5630 5627 5624 5620 5617 5613 5609 5606 5602 5598 5594 5590 5586 5582 5578 5574 5569 5565 5561 5556 5552 5548 5544 5540 5536
5665 5663 5662 5660 5659 5657 5655 5652 5650 5647 5645 5642 5639 5636 5633 5630 5626 5623 5620 5617 5613 5610 5607 5603 5600 5597 5593 5589 5586 5582 5578 5574 5571 5567 5563 5559 5555 5551 5547 5542 5538 5535 5531 5527
5655 5653 5651 5650 5647 5645 5643 5640 5638 5635 5632 5629 5626 5623 5620 5617 5613 5610 5607 5604 5601 5597 5594 5591 5588 5585 5581 5578 5574 5571 5567 5564 5560 5557 5553 5549 5546 5542 5538 5535 5531 5527 5523 5520